FENGYUN 1C DEB

Satellite information

Favourite Embed

Satellite Type and Status

DEBRISIN ORBIT

Key statistics

Satellite FENGYUN 1C DEB at a glance.

Uptime

9616

Days in orbit

Revolutions

≈ 14.3

Per day

Orbit

SSO

Sun Synchronous Orbit

Inclination

98.4

Latest

Satellite identification and parameters

Extended collection of information and parameters for FENGYUN 1C DEB.

Object identification

Identified? True

Debris? True

Object name: FENGYUN 1C DEB

International designator: 1999-025EVT

Object number (NORAD): 38827

Object ID (CCSDS): 38827

Country: PEOPLES REPUBLIC OF CHINA (PRC)

Current information (Y/N): Y

RCS size: SMALL

Orbital parameters

Period: 100.553 minutes

Inclination: 98.3992 deg

SMA: 7162.931 km

Apoapsis: 941.083 km

Periapsis: 628.51 km

RAAN: 274.8001 deg

Eccentricy: 0.0218188

Argument of periapsis: 243.277 deg

Mean anomaly: 114.5935 deg

Mean motion: 14.32077658 rev/day

Mean motion (dot): 0.00002788 rev/day2

B* drag term: 0.00081161606 1/REarth

Two-line elements (TLE)

Creation date: Sept. 6, 2025, 2:09 a.m.

Reference frame: TEME

Reference center: EARTH

Epoch: Sept. 5, 2025, 7:59 p.m. UTC

TLE line 0: 0 FENGYUN 1C DEB

TLE line 1: 1 38827U 99025EVT 25248.83299566 .00002788 00000-0 81162-3 0 9998

TLE line 2: 2 38827 98.3992 274.8001 0218188 243.2770 114.5935 14.32077658596589

Live tracking on map

Real-time ground track for satellite FENGYUN 1C DEB.

In-orbit conjunctions

A list of the most updated potential collisions computed for object FENGYUN 1C DEB.

Target Orbit TCA Probability of collision Miss distance Type
IRIDIUM 33 DEB LEO 2025-07-23 21:23:31 0.0002875282 130.0 (m) DEBRIS
COSMOS 1275 DEB LEO 2024-11-07 23:09:45 0.000712696 219.0 (m) DEBRIS
NOAA 16 DEB SSO 2024-09-26 02:33:59 0.0002234687 570.0 (m) DEBRIS
SPOT 4 SSO 2024-08-08 23:31:17 0.0004480718 211.0 (m) PAYLOAD
SL-8 R/B LEO 2024-07-27 06:12:08 0.0002840495 645.0 (m) ROCKET BODY

Associated space launch

Chinese polar orbiting meteorological satellite

FENGYUN 1C DEB was lifted into orbit during the mission ‘Long March 4B | Feng Yun 1C’, on board a Long March 4B space rocket.

The launch took place on May 10, 1999, 1:33 a.m. from Launch Complex 7.

For more information about the launch, click the button.

Launch to space Long March 4B | Feng Yun 1C
Long March 4B | Feng Yun 1C

Agency: N/A

Status: Launch Successful

Launch date: May 10, 1999, 1:33 a.m. UTC

Rocket: Long March 4B

Launch pad: Launch Complex 7

Location: Taiyuan Satellite Launch Center, People's Republic of China

...

Latest news about this satellite

There are no fresh news available about this satellite. Check back as we update our databases every day.


Newsletter sign-up

Weekly statistics, charts and insights to help you stay on top of the space industry.